May 17, 2022

Time Code Weather Temp. Visibility Clouds Wind METAR/SPECI
3:25 pm
V
75 °F 6¼ mi+ - 120°   120° 9 kt METAR EHVK 171325Z AUTO 12009KT 060V160 9999 SCT410 24/14 Q1019 BLU BECMG 14007KT
2:55 pm
V
75 °F 6¼ mi+ 37,000 ft 140°   140° 9 kt METAR EHVK 171255Z AUTO 14009KT 080V210 9999 BKN370 24/13 Q1019 BLU BECMG 14007KT
2:25 pm
V
73 °F 6¼ mi+ 11,000 ft 120°   120° 8 kt METAR EHVK 171225Z AUTO 12008KT 070V180 9999 BKN110 OVC370 23/13 Q1020 BLU BECMG 14007KT
1:55 pm
V
72 °F 6¼ mi+ 8,300 ft 110°   110° 8 kt METAR EHVK 171155Z AUTO 11008KT 050V160 9999 BKN083 OVC110 22/13 Q1020 BLU BECMG 14007KT
1:25 pm
V
70 °F 6¼ mi+ 5,300 ft 120°   120° 6 kt METAR EHVK 171125Z AUTO 12006KT 050V160 9999 BKN053 OVC059 21/13 Q1020 BLU BECMG 14007KT
12:55 pm
V
70 °F 6¼ mi+ 7,300 ft 120°   120° 7 kt METAR EHVK 171055Z AUTO 12007KT 060V170 9999 SCT066 BKN073 BKN078 21/13 Q1020 BLU BECMG 14007KT
12:25 pm
V
68 °F 6¼ mi+ 5,900 ft 110°   110° 7 kt METAR EHVK 171025Z AUTO 11007KT 060V140 9999 FEW051 OVC059 20/13 Q1021 BLU BECMG 14007KT
12:08 pm
V
68 °F 6¼ mi+ 6,100 ft 110°   110° 7 kt METAR EHVK 171008Z AUTO 11007KT 080V160 9999 BKN061 OVC071 20/13 Q1021 BLU BECMG 14007KT
11:55 am
V
66 °F 6¼ mi+ 5,000 ft 120°   120° 5 kt METAR EHVK 170955Z AUTO 12005KT 090V180 9999 BKN050 BKN061 BKN070 19/12 Q1021 BLU BECMG 14007KT
11:25 am
V
64 °F 6¼ mi+ 5,400 ft 170°   170° 3 kt METAR EHVK 170925Z AUTO 17003KT 130V190 9999 -RA BKN054 BKN060 OVC066 18/12 Q1021 BLU BECMG 14007KT
10:55 am
V
66 °F 6¼ mi+ 5,900 ft 170°   170° 3 kt METAR EHVK 170855Z AUTO 17003KT 100V210 9999 BKN059 OVC066 19/13 Q1021 BLU BECMG 14007KT
10:47 am
V
66 °F 6¼ mi+ 5,900 ft 160°   160° 3 kt METAR EHVK 170847Z AUTO 16003KT 100V220 9999 BKN059 OVC066 19/13 Q1021 BLU BECMG 14007KT
10:25 am
V
64 °F 6¼ mi+ 6,600 ft 160°   160° 3 kt METAR EHVK 170825Z AUTO 16003KT 110V190 9999 -RA FEW029 BKN066 OVC071 18/13 Q1021 RERA REDZ BLU NOSIG
9:55 am
V
64 °F 6¼ mi+ 5,600 ft 200°   200° 3 kt METAR EHVK 170755Z AUTO 20003KT 120V230 9999 -RA BKN056 OVC061 18/13 Q1021 RERA REDZ BLU NOSIG
9:25 am
V
64 °F 6¼ mi+ 6,600 ft 230°   230° 3 kt METAR EHVK 170725Z AUTO 23003KT 9999 FEW057 BKN066 OVC072 18/13 Q1021 BLU NOSIG
8:55 am
V
64 °F 6¼ mi+ 7,600 ft 230°   230° 3 kt METAR EHVK 170655Z AUTO 23003KT 200V320 9999 FEW065 BKN076 OVC082 18/13 Q1021 BLU NOSIG
8:25 am
V
63 °F 6¼ mi+ 8,200 ft Var   Var 2 kt METAR EHVK 170625Z AUTO VRB02KT 9999 BKN082 OVC088 17/13 Q1021 BLU NOSIG
7:55 am
V
61 °F 6¼ mi+ 10,000 ft Var   Var 1 kt METAR EHVK 170555Z AUTO VRB01KT 9999 FEW069 SCT095 OVC100 16/13 Q1020 BLU NOSIG
7:25 am
V
59 °F 6¼ mi+ 5,300 ft Var   Var 1 kt METAR EHVK 170525Z AUTO VRB01KT 9999 OVC053 15/13 Q1020 BLU NOSIG
7:18 am
V
59 °F 6¼ mi+ 5,300 ft Var   Var 1 kt METAR EHVK 170518Z AUTO VRB01KT 9999 OVC053 15/13 Q1020 BLU NOSIG
7:00 am
V
57 °F 6¼ mi+ 5,300 ft 220°   220° 3 kt METAR EHVK 170500Z AUTO 22003KT 9999 OVC053 14/13 Q1020 BLU
6:55 am
V
57 °F 6¼ mi+ 5,300 ft 220°   220° 3 kt METAR EHVK 170455Z AUTO 22003KT 9999 OVC053 14/12 Q1020 BLU
6:25 am
V
57 °F 6¼ mi+ 5,300 ft Var   Var 2 kt METAR EHVK 170425Z AUTO VRB02KT 9999 BKN053 BKN070 OVC140 14/12 Q1020 BLU
5:55 am
V
57 °F 6¼ mi+ 7,200 ft 240°   240° 3 kt METAR EHVK 170355Z AUTO 24003KT 9999 BKN072 OVC100 14/12 Q1020 BLU
5:25 am
V
57 °F 6¼ mi+ 7,600 ft 240°   240° 3 kt METAR EHVK 170325Z AUTO 24003KT 9999 BKN076 OVC100 14/12 Q1020 BLU
4:55 am
V
55 °F 6¼ mi+ 7,000 ft 230°   230° 3 kt METAR EHVK 170255Z AUTO 23003KT 9999 BKN070 BKN087 OVC092 13/12 Q1020 BLU
4:25 am
V
55 °F 6¼ mi+ 8,100 ft 220°   220° 3 kt METAR EHVK 170225Z AUTO 22003KT 9999 SCT076 OVC081 13/12 Q1019 BLU
3:55 am
V
55 °F 6¼ mi+ 10,000 ft 220°   220° 3 kt METAR EHVK 170155Z AUTO 22003KT 180V260 9999 FEW076 OVC100 13/11 Q1019 BLU
3:25 am
V
52 °F 6¼ mi+ 8,800 ft 210°   210° 2 kt METAR EHVK 170125Z AUTO 21002KT 9999 BKN088 BKN100 BKN190 11/10 Q1019 BLU
2:55 am
V
54 °F 6¼ mi+ - 210°   210° 3 kt METAR EHVK 170055Z AUTO 21003KT 060V170 9999 NCD 12/11 Q1020 BLU
2:25 am
V
54 °F 6¼ mi+ 23,000 ft 220°   220° 2 kt METAR EHVK 170025Z AUTO 22002KT 9999 BKN230 12/10 Q1020 BLU
1:55 am
V
54 °F 6¼ mi+ - 230°   230° 3 kt METAR EHVK 162355Z AUTO 23003KT 9999 FEW240 12/11 Q1020 BLU
1:25 am
V
54 °F 6¼ mi+ 27,000 ft 240°   240° 3 kt METAR EHVK 162325Z AUTO 24003KT 9999 BKN270 12/11 Q1020 BLU
12:55 am
V
55 °F 6¼ mi+ - 230°   230° 2 kt METAR EHVK 162255Z AUTO 23002KT 9999 FEW270 13/11 Q1019 BLU
12:25 am
V
55 °F 6¼ mi+ - 230°   230° 1 kt METAR EHVK 162225Z AUTO 23001KT 9999 NCD 13/12 Q1019 BLU

May 16, 2022

Time Code Weather Temp. Visibility Clouds Wind METAR/SPECI
11:55 pm
V
57 °F 6¼ mi+ - 230°   230° 2 kt METAR EHVK 162155Z AUTO 23002KT 9999 NCD 14/12 Q1019 BLU
11:25 pm
V
55 °F 6¼ mi+ - 230°   230° 4 kt METAR EHVK 162125Z AUTO 23004KT 9999 NCD 13/11 Q1019 BLU
10:55 pm
V
57 °F 6¼ mi+ - 240°   240° 2 kt METAR EHVK 162055Z AUTO 24002KT 9999 NCD 14/12 Q1019 BLU
10:25 pm
V
57 °F 6¼ mi+ - 230°   230° 3 kt METAR EHVK 162025Z AUTO 23003KT 9999 NCD 14/11 Q1019 BLU
9:55 pm
V
63 °F 6¼ mi+ - 270°   270° 3 kt METAR EHVK 161955Z AUTO 27003KT 9999 NCD 17/12 Q1019 BLU
9:25 pm
V
64 °F 6¼ mi+ - 290°   290° 3 kt METAR EHVK 161925Z AUTO 29003KT 9999 NCD 18/12 Q1018 BLU
8:55 pm
V
66 °F 6¼ mi+ - 290°   290° 4 kt METAR EHVK 161855Z AUTO 29004KT 9999 NCD 19/13 Q1018 BLU
8:25 pm
V
68 °F 6¼ mi+ - 290°   290° 3 kt METAR EHVK 161825Z AUTO 29003KT 250V340 9999 NCD 20/13 Q1018 BLU
7:55 pm
V
68 °F 6¼ mi+ 26,000 ft 310°   310° 4 kt METAR EHVK 161755Z AUTO 31004KT 260V350 9999 FEW038 BKN260 20/13 Q1018 BLU
7:25 pm
V
70 °F 6¼ mi+ 3,800 ft 300°   300° 4 kt METAR EHVK 161725Z AUTO 30004KT 260V040 9999 SCT033 BKN038 BKN220 21/13 Q1017 BLU
6:55 pm
V
68 °F 6¼ mi+ 17,000 ft 290°   290° 7 kt METAR EHVK 161655Z AUTO 29007KT 240V330 9999 SCT031 OVC170 20/14 Q1017 BLU
6:25 pm
V
68 °F 6¼ mi+ 13,000 ft 280°   280° 5 kt METAR EHVK 161625Z AUTO 28005KT 250V330 9999 OVC130 20/14 Q1017 BLU
5:55 pm
V
68 °F 6¼ mi+ 12,000 ft 280°   280° 7 kt METAR EHVK 161555Z AUTO 28007KT 240V330 9999 SCT027 OVC120 20/15 Q1017 BLU
5:25 pm
V
68 °F 6¼ mi+ 5,100 ft 260°   260° 7 kt METAR EHVK 161525Z AUTO 26007KT 240V300 9999 FEW032 SCT046 BKN051 20/15 Q1017 BLU
5:00 pm
V
68 °F 6¼ mi+ 9,700 ft 250°   250° 8 kt METAR EHVK 161500Z AUTO 25008KT 210V310 9999 FEW024 BKN097 OVC100 20/15 Q1017 BLU
4:55 pm
V
68 °F 6¼ mi+ 9,800 ft 260°   260° 8 kt METAR EHVK 161455Z AUTO 26008KT 220V300 9999 FEW024 OVC098 20/15 Q1016 BLU TEMPO 25015G25KT 3500 SHRA TSRA SCT030CB SCT040
4:25 pm
V
68 °F 6¼ mi+ 4,100 ft 270°   270° 8 kt METAR EHVK 161425Z AUTO 27008KT 240V310 9999 SCT035 BKN041 BKN085 20/15 Q1016 BLU TEMPO 25015G25KT 3500 SHRA TSRA SCT030CB SCT040
4:00 pm
M
66 °F 6¼ mi+ 2,600 ft 270°   270° 8 kt METAR EHVK 161400Z AUTO 27008KT 230V320 9999 FEW022 BKN026 OVC029 19/16 Q1016 BLU TEMPO 25015G25KT 3500 SHRA TSRA SCT030CB SCT040
3:55 pm
M
66 °F 6¼ mi+ 2,000 ft 260°   260° 10 kt METAR EHVK 161355Z AUTO 26010KT 230V310 9999 BKN020 OVC024 19/16 Q1016 REDZ WHT TEMPO 25015G25KT 3500 SHRA TSRA SCT030CB SCT040
3:36 pm
M
66 °F 6¼ mi+ 1,400 ft 280°   280° 10 kt METAR EHVK 161336Z AUTO 28010KT 240V320 9999 DZ FEW012 BKN014 OVC017 19/17 Q1016 GRN TEMPO 25015G25KT 3500 SHRA TSRA SCT030CB SCT040
3:32 pm
M
66 °F 6¼ mi+ 1,700 ft 280°   280° 9 kt METAR EHVK 161332Z AUTO 28009KT 240V320 9999 -RADZ SCT014 OVC017 19/17 Q1016 GRN TEMPO 25015G25KT 3500 SHRA TSRA SCT030CB SCT040
3:25 pm
M
68 °F 6¼ mi+ 1,500 ft 280°   280° 10 kt METAR EHVK 161325Z AUTO 28010KT 240V330 9999 OVC015 20/17 Q1016 WHT TEMPO 25015G25KT 3500 SHRA TSRA SCT030CB SCT040
3:09 pm
M
70 °F 6¼ mi+ 1,900 ft 270°   270° 9 kt METAR EHVK 161309Z AUTO 27009KT 230V310 9999 BKN019 BKN023 OVC053 21/17 Q1015 WHT TEMPO 25015G25KT 3500 SHRA TSRA SCT030CB SCT040
3:05 pm
V
70 °F 6¼ mi+ 4,800 ft 270°   270° 9 kt METAR EHVK 161305Z AUTO 27009KT 230V310 9999 FEW015CB SCT023 BKN048 21/17 Q1015 WHT TEMPO 25015G25KT 3500 SHRA TSRA SCT030CB SCT040
2:55 pm
V
72 °F 6¼ mi+ 10,000 ft 280°   280° 4 kt METAR EHVK 161255Z AUTO 28004KT 230V330 9999 FEW015CB SCT062 OVC100 22/19 Q1015 RETSRA BLU TEMPO 25015G25KT 3500 SHRA TSRA SCT030CB SCT040
2:25 pm
V
66 °F 6¼ mi+ 5,400 ft 270°   270° 11 kt METAR EHVK 161225Z AUTO 27011KT 230V300 9999 -TSRA FEW015CB BKN054 BKN061 19/16 Q1015 BLU TEMPO 25015G25KT 3500 SHRA TSRA SCT030CB SCT040
1:55 pm
V
75 °F 6¼ mi+ 13,000 ft 260°   260° 11 kt METAR EHVK 161155Z AUTO 26011KT 210V300 9999 FEW033 FEW035CB SCT066 OVC130 24/15 Q1015 RETS BLU TEMPO 25015G25KT 3500 SHRA TSRA SCT030CB SCT040
1:25 pm
V
70 °F 6¼ mi+ 8,900 ft 230°   230° 13 kt METAR EHVK 161125Z AUTO 23013KT 200V260 9999 TS FEW019CB SCT075 BKN089 21/17 Q1015 BLU TEMPO 25015G25KT 3500 SHRA TSRA SCT030CB SCT040
12:55 pm
V
79 °F 6¼ mi+ 5,000 ft 220°   220° 12 kt METAR EHVK 161055Z AUTO 22012KT 170V270 9999 TS BKN050 FEW052CB OVC086 26/13 Q1014 BLU TEMPO 25015G25KT 3500 SHRA TSRA SCT030CB SCT040
12:25 pm
V
81 °F 6¼ mi+ - 190°   190° 4 kt METAR EHVK 161025Z AUTO 19004KT 090V250 9999 FEW370 27/13 Q1014 BLU TEMPO 25015G25KT 3500 SHRA TSRA SCT030CB SCT040
12:05 pm
V
77 °F 6¼ mi+ 37,000 ft 090°   090° 3 kt METAR EHVK 161005Z AUTO 09003KT 9999 SCT170 BKN370 25/13 Q1014 BLU TEMPO 25015G25KT 3500 SHRA TSRA SCT030CB SCT040
12:01 pm
V
77 °F 6¼ mi+ - Var   Var 3 kt METAR EHVK 161001Z AUTO VRB03KT 9999 SCT370/// 25/13 Q1014 BLU TEMPO 25015G27KT 4500 SHRA TSRA SCT030CB SCT040
11:55 am
V
75 °F 6¼ mi+ - 130°   130° 6 kt METAR EHVK 160955Z AUTO 13006KT 070V230 9999 SCT100 24/13 Q1014 BLU TEMPO 25015G27KT 4500 SHRA TSRA SCT030CB SCT040
11:25 am
V
75 °F 6¼ mi+ 14,000 ft 150°   150° 4 kt METAR EHVK 160925Z AUTO 15004KT 070V210 9999 BKN140 24/13 Q1014 BLU NOSIG
10:55 am
V
73 °F 6¼ mi+ 13,000 ft 140°   140° 4 kt METAR EHVK 160855Z AUTO 14004KT 090V170 9999 OVC130 23/12 Q1014 BLU NOSIG
10:25 am
V
70 °F 6¼ mi+ 11,000 ft 180°   180° 4 kt METAR EHVK 160825Z AUTO 18004KT 150V230 9999 OVC110 21/12 Q1013 BLU NOSIG
9:55 am
V
70 °F 6¼ mi+ 9,300 ft 190°   190° 5 kt METAR EHVK 160755Z AUTO 19005KT 130V220 9999 BKN093 BKN098 OVC110 21/12 Q1013 BLU BECMG 18010KT
9:25 am
V
66 °F 6¼ mi+ 10,000 ft 170°   170° 5 kt METAR EHVK 160725Z AUTO 17005KT 140V220 9999 OVC100 19/11 Q1013 BLU BECMG 18010KT
8:55 am
V
66 °F 6¼ mi+ 7,500 ft 170°   170° 5 kt METAR EHVK 160655Z AUTO 17005KT 120V190 9999 BKN075 BKN140 OVC200 19/10 Q1013 BLU BECMG 18010KT
8:25 am
V
64 °F 6¼ mi+ 8,700 ft 160°   160° 4 kt METAR EHVK 160625Z AUTO 16004KT 100V190 9999 SCT078 BKN087 OVC140 18/10 Q1013 BLU BECMG 18010KT
7:55 am
V
64 °F 6¼ mi+ 10,000 ft 130°   130° 6 kt METAR EHVK 160555Z AUTO 13006KT 090V170 9999 BKN100 OVC150 18/10 Q1012 BLU BECMG 18010KT
7:25 am
V
63 °F 6¼ mi+ - 110°   110° 6 kt METAR EHVK 160525Z AUTO 11006KT 080V160 9999 FEW088 17/10 Q1012 BLU
6:55 am
V
59 °F 6¼ mi+ - 110°   110° 5 kt METAR EHVK 160455Z AUTO 11005KT 080V150 9999 SCT260 15/10 Q1012 BLU
6:25 am
V
57 °F 6¼ mi+ - 100°   100° 5 kt METAR EHVK 160425Z AUTO 10005KT 080V140 9999 FEW080 14/09 Q1012 BLU
5:55 am
V
57 °F 6¼ mi+ 17,000 ft 100°   100° 5 kt METAR EHVK 160355Z AUTO 10005KT 080V140 9999 OVC170 14/09 Q1012 BLU
5:25 am
V
57 °F 6¼ mi+ - 100°   100° 5 kt METAR EHVK 160325Z AUTO 10005KT 070V130 9999 NCD 14/09 Q1012 BLU
4:55 am
V
57 °F 6¼ mi+ - 100°   100° 5 kt METAR EHVK 160255Z AUTO 10005KT 9999 NCD 14/09 Q1013 BLU
4:25 am
V
59 °F 6¼ mi+ 32,000 ft 100°   100° 5 kt METAR EHVK 160225Z AUTO 10005KT 080V150 9999 BKN320 15/08 Q1013 BLU
3:55 am
V
59 °F 6¼ mi+ 31,000 ft 090°   090° 6 kt METAR EHVK 160155Z AUTO 09006KT 9999 OVC310 15/08 Q1013 BLU
3:25 am
V
57 °F 6¼ mi+ 29,000 ft 080°   080° 6 kt METAR EHVK 160125Z AUTO 08006KT 9999 OVC290 14/08 Q1013 BLU
2:55 am
V
59 °F 6¼ mi+ 30,000 ft 080°   080° 6 kt METAR EHVK 160055Z AUTO 08006KT 050V120 9999 OVC300 15/08 Q1013 BLU
2:25 am
V
57 °F 6¼ mi+ 33,000 ft 070°   070° 7 kt METAR EHVK 160025Z AUTO 07007KT 9999 OVC330 14/08 Q1014 BLU
1:55 am
V
59 °F 6¼ mi+ 34,000 ft 080°   080° 6 kt METAR EHVK 152355Z AUTO 08006KT 060V130 9999 OVC340 15/08 Q1014 BLU
1:25 am
V
59 °F 6¼ mi+ 19,000 ft 080°   080° 7 kt METAR EHVK 152325Z AUTO 08007KT 9999 BKN190 OVC360 15/08 Q1014 BLU
12:55 am
V
61 °F 6¼ mi+ - 080°   080° 6 kt METAR EHVK 152255Z AUTO 08006KT 9999 SCT210 16/08 Q1014 BLU
12:25 am
V
63 °F 6¼ mi+ 18,000 ft 060°   060° 6 kt METAR EHVK 152225Z AUTO 06006KT 9999 OVC180 17/08 Q1015 BLU

May 15, 2022

Time Code Weather Temp. Visibility Clouds Wind METAR/SPECI
11:55 pm
V
63 °F 6¼ mi+ 20,000 ft 060°   060° 6 kt METAR EHVK 152155Z AUTO 06006KT 9999 OVC200 17/08 Q1015 BLU
11:25 pm
V
63 °F 6¼ mi+ - 090°   090° 5 kt METAR EHVK 152125Z AUTO 09005KT 060V120 9999 SCT210 17/08 Q1015 BLU
10:55 pm
V
63 °F 6¼ mi+ - 070°   070° 7 kt METAR EHVK 152055Z AUTO 07007KT 9999 NCD 17/07 Q1015 BLU
10:25 pm
V
64 °F 6¼ mi+ - 070°   070° 7 kt METAR EHVK 152025Z AUTO 07007KT 9999 NCD 18/07 Q1015 BLU
9:55 pm
V
66 °F 6¼ mi+ - 060°   060° 7 kt METAR EHVK 151955Z AUTO 06007KT 9999 NCD 19/07 Q1015 BLU
9:25 pm
V
68 °F 6¼ mi+ - 070°   070° 7 kt METAR EHVK 151925Z AUTO 07007KT 9999 NCD 20/07 Q1014 BLU
8:55 pm
V
70 °F 6¼ mi+ - 070°   070° 8 kt METAR EHVK 151855Z AUTO 07008KT 9999 NCD 21/06 Q1014 BLU
8:25 pm
V
75 °F 6¼ mi+ - 070°   070° 10 kt METAR EHVK 151825Z AUTO 07010KT 9999 NCD 24/05 Q1014 BLU
7:55 pm
V
75 °F 6¼ mi+ - 080°   080° 9 kt METAR EHVK 151755Z AUTO 08009KT 050V110 9999 NCD 24/05 Q1015 BLU
7:25 pm
V
77 °F 6¼ mi+ 25,000 ft 070°   070° 10 kt METAR EHVK 151725Z AUTO 07010KT 040V100 9999 BKN250 OVC340 25/05 Q1015 BLU
6:55 pm
V
77 °F 6¼ mi+ 23,000 ft 080°   080° 10 kt METAR EHVK 151655Z AUTO 08010KT 040V120 9999 OVC230 25/05 Q1015 BLU
6:25 pm
V
77 °F 6¼ mi+ 20,000 ft 080°   080° 10 kt METAR EHVK 151625Z AUTO 08010KT 030V120 9999 OVC200 25/05 Q1015 BLU
5:55 pm
V
77 °F 6¼ mi+ 21,000 ft 060°   060° 11 kt METAR EHVK 151555Z AUTO 06011KT 030V120 9999 OVC210 25/05 Q1016 BLU
5:25 pm
V
77 °F 6¼ mi+ 21,000 ft 090°   090° 8 kt METAR EHVK 151525Z AUTO 09008KT 030V140 9999 OVC210 25/05 Q1016 BLU
4:55 pm
V
77 °F 6¼ mi+ 25,000 ft 090°   090° 8 kt METAR EHVK 151455Z AUTO 09008KT 050V150 9999 OVC250 25/05 Q1016 BLU
4:25 pm
V
79 °F 6¼ mi+ 22,000 ft 100°   100° 7 kt METAR EHVK 151425Z AUTO 10007KT 030V170 9999 OVC220 26/06 Q1017 BLU
3:55 pm
V
77 °F 6¼ mi+ 35,000 ft 080°   080° 9 kt METAR EHVK 151355Z AUTO 08009KT 040V130 9999 SCT250 BKN350 25/04 Q1017 BLU
Older data

Download our app

Easy access to all aviation weather on your mobile phone and tablet.
With many features not available on the website, like offline support and a personal airport list.